Overview Statistics Trail Chart Weather Telemetry Raw packets
 

This is the latest recevied weather packets stored in our database for station/object WC4PEM. If no packets are shown the sender has not sent any weather packets the latest 10 day(s).

<< 1 2 3 4 5 6 7 >>
Time Temp. Humidity Pressure Rain* Wind** Luminosity Snow
1788559290 32.22° C 74% 1012.4 hPa 0 mm - - -
1788558990 32.22° C 74% 1012.5 hPa 0 mm - - -
1788558690 32.22° C 73% 1012.4 hPa 0 mm - - -
1788558659 32.22° C 72% 1012.5 hPa 0 mm - - -
1788558390 32.22° C 72% 1012.5 hPa 0 mm - - -
1788558090 32.22° C 72% 1012.8 hPa 0 mm - - -
1788558074 32.22° C 73% 1013 hPa 0 mm - - -
1788558029 32.22° C 73% 1013 hPa 0 mm - - -
1788557791 32.22° C 73% 1013 hPa 0 mm - - -
1788557491 32.22° C 73% 1013.1 hPa 0 mm - - -
1788557191 32.22° C 74% 1013.1 hPa 0 mm - - -
1788557089 32.22° C 73% 1013.2 hPa 0 mm - - -
1788556891 32.22° C 73% 1013.2 hPa 0 mm - - -
1788556591 32.22° C 74% 1013.2 hPa 0 mm - - -
1788556291 32.22° C 74% 1013.3 hPa 0 mm - - -
1788556117 32.22° C 72% 1013.2 hPa 0 mm - - -
1788555991 32.22° C 72% 1013.2 hPa 0 mm - - -
1788555691 32.22° C 73% 1013.3 hPa 0 mm - - -
1788555391 32.22° C 71% 1013.3 hPa 0 mm - - -
1788555091 31.67° C 73% 1013.1 hPa 0 mm - - -
1788554791 31.11° C 74% 1013.1 hPa 0 mm - - -
1788554624 31.11° C 77% 1012.9 hPa 0 mm - - -
1788554491 31.11° C 77% 1012.9 hPa 0 mm - - -
1788554359 31.11° C 78% 1012.9 hPa 0 mm - - -
1788554191 31.11° C 78% 1012.9 hPa 0 mm - - -

* Rain latest hour (hover to see other rain measurements)
** Current wind speed in m/s (hover to see current wind gust speed)